Starlink 3871

operational
NORAD ID: 52496 Int'l Des: 2022-049 Owner: SPXS Country: US Constellation: starlink
LEOCIRCULAR

About Starlink 3871

Description loading...

Live Position

Loading 3D Globe...

Upcoming Passes

Altitude History

Altitude vs Time

uPlot chart will show altitude changes over time

Two-Line Element Set

1 52496U 22049AX 25352.56829209 -.00001303 00000-0 -63782-4 0 9990
2 52496 53.2185 48.2894 0001381 87.4269 272.6882 15.08844451200216
Epoch: Dec 18, 2025 • Age: 16 hours

Current Status

Altitude 544.7 km
Velocity 7.60 km/s
Sub-Earth Point 50.37°N, 66.87°W
Launch Date May 6, 2022
Age 3.6 years
Type internet

Technical Details

Classification Payload
Mass 297.00 kg
Dry Mass 220.00 kg
Total Mass 297.00 kg
Length 0.20 m
Diameter 2.80 m
Span 9.00 m
Shape Box + pan
Manufacturer SPXS
Bus Type Starlink
Phase Status In Orbit
Owner/State SPXS/US

Large Constellations

Loading constellations...